Find Starlink 37330

NORAD ID: 100498 Int'l Des: 2026-196 Owner: SPXS Country: US Constellation: starlink operational

現在のビュー

3D地球を読み込み中...

About Starlink 37330

Starlink 37330 (NORAD 100498) is a starlink constellation satellite launched Aug 25, 2026 by SPXS of US. with a mass of 575.00 kg.

次回通過

Passes for default location (London). Set your location on the main map for personalized predictions.

高度履歴

Loading altitude history...

軌道要素

1 A0498U 26196AB 26255.20025836 .00243256 00000-0 12605-2 0 9999
2 A0498 53.1572 283.2692 0002102 71.4898 288.6353 15.79825352 4040
Epoch: Sep 12, 2026 • Age: 12 hours

現在のステータス

高度 342.6 km
遠地点 / 近地点 N/A
速度 7.70 km/s
衛星直下点 -36.27°S, 4.67°E
打ち上げ日 Aug 25, 2026
運用期間 18 days
タイプ internet

技術仕様

分類 Payload
質量 575.00 kg
乾燥質量 530.00 kg
総質量 575.00 kg
長さ 0.30 m
直径 4.10 m
スパン 29.00 m
形状 Box + pan
製造者 SPXS
バスタイプ Starlink V2MO
フェーズステータス In Orbit
所有者/国 SPXS/US

Most Searched